Powrót do katalogu

SL-16 DEB

AktywnyLEO
NORAD 18417·DEBRIS·🇷🇺 Russia

Wystrzelony Mar 18, 1987 z Baikonur Cosmodrome

Loading…

Następne Przeloty (najbliższe 24 godziny)

TLE

ŚwieżeSource: Space-Track

Epoka: Sep 14, 2026, 10:26 UTC

1 18417U 87027D   26257.43517751  .00000040  00000-0  74644-4 0  9993
2 18417  70.9994 167.8031 0200224 151.0616 328.8231 13.74671688979785

Śledź SL-16 DEB w czasie rzeczywistym z AllMySat

Download on the App Store